Tracking 19846 objects as of 18-Sep-2019
HD Live streaming from Space Station
objects crossing your sky now

PERSEUS M1

Track PERSEUS M1 now!
10-day predictions
PERSEUS M1 is classified as:


NORAD ID: 40039
Int'l Code: 2014-033AF
Perigee: 606.5 km
Apogee: 628.1 km
Inclination: 97.9 °
Period: 96.9 minutes
Semi major axis: 6988 km
RCS: Unknown
Launch date: June 19, 2014
Source: Commonwealth of Independent States (former USSR) (CIS)
Launch site: Orenburg, Russia (OREN)

Uplink (MHz):
Downlink (MHz): 400.160/400.170
Beacon (MHz):
Mode: 9600bps GFSK
Call sign: CQ
Status:

aabbcc
Your satellite tracking list
Your tracking list is empty




NASA's NSSDC Master Catalog

Two Line Element Set (TLE):
1 40039U 14033AF  19261.31576448  .00000049  00000-0  11892-4 0  9992
2 40039  97.8841 173.7368 0015428 122.2361 238.0352 14.86095824284517
Source of the keplerian elements: AFSPC